AFR832 DNAA-DXXX

Flight info

Callsign AFR832
Flight time N/A
Altitude 40000
Route IKSEM1S IKSEM DCT VONUK UH340 LAG UL433 MONOS MONOS1L
Aircraft B772/H-SDE2E3FGHIJ5LORVWXY/LB1D1

Departure

Time N/A
Airport Nnamdi Azikiwe International Airport (DNAA)

Arrival

Time 2026-04-15 16:56
Airport Lomé–Tokoin International Airport (DXXX)
Time Latitude Longitude Altitude Speed Heading
2026-04-15 16:11 7.89856 5.53638 39823 ft 463 kts 240°
2026-04-15 16:12 7.88328 5.50783 39819 ft 463 kts 240°
2026-04-15 16:12 7.85262 5.45051 39836 ft 463 kts 241°
2026-04-15 16:13 7.82205 5.39337 39827 ft 462 kts 241°
2026-04-15 16:13 7.79172 5.33674 39829 ft 461 kts 240°
2026-04-15 16:14 7.76119 5.27973 39829 ft 461 kts 240°
2026-04-15 16:14 7.73067 5.22279 39835 ft 462 kts 240°
2026-04-15 16:15 7.70007 5.16570 39849 ft 463 kts 240°
2026-04-15 16:15 7.66941 5.10852 39844 ft 464 kts 240°
2026-04-15 16:16 7.63876 5.05140 39837 ft 466 kts 240°
2026-04-15 16:16 7.60776 4.99362 39848 ft 466 kts 240°
2026-04-15 16:17 7.57689 4.93612 39830 ft 466 kts 240°
2026-04-15 16:17 7.54632 4.87920 39842 ft 465 kts 240°
2026-04-15 16:18 7.51555 4.82194 39838 ft 464 kts 241°
2026-04-15 16:18 7.48476 4.76466 39838 ft 464 kts 240°
2026-04-15 16:19 7.45397 4.70739 39835 ft 464 kts 240°
2026-04-15 16:19 7.42316 4.65011 39835 ft 465 kts 240°
2026-04-15 16:20 7.39236 4.59288 39830 ft 465 kts 241°
2026-04-15 16:20 7.36149 4.53553 39828 ft 465 kts 241°
2026-04-15 16:21 7.33064 4.47823 39828 ft 466 kts 240°
2026-04-15 16:21 7.29987 4.42110 39828 ft 466 kts 240°
2026-04-15 16:22 7.26896 4.36372 39830 ft 466 kts 240°
2026-04-15 16:22 7.23795 4.30620 39827 ft 467 kts 241°
2026-04-15 16:23 7.20687 4.24858 39828 ft 467 kts 240°
2026-04-15 16:23 7.17579 4.19106 39827 ft 467 kts 241°
2026-04-15 16:24 7.14491 4.13392 39824 ft 467 kts 241°
2026-04-15 16:24 7.11391 4.07655 39831 ft 466 kts 240°
2026-04-15 16:25 7.08293 4.01921 39833 ft 466 kts 241°
2026-04-15 16:25 7.05198 3.96196 39830 ft 465 kts 241°
2026-04-15 16:26 7.02099 3.90467 39825 ft 465 kts 241°
2026-04-15 16:26 6.99002 3.84743 39825 ft 466 kts 241°
2026-04-15 16:27 6.95905 3.79020 39845 ft 466 kts 241°
2026-04-15 16:27 6.92822 3.73326 39835 ft 465 kts 241°
2026-04-15 16:28 6.89725 3.67607 39829 ft 465 kts 241°
2026-04-15 16:28 6.86636 3.61905 39357 ft 464 kts 241°
2026-04-15 16:28 6.85097 3.59066 38859 ft 462 kts 241°
2026-04-15 16:29 6.84284 3.57566 38627 ft 460 kts 241°
2026-04-15 16:29 6.82730 3.54699 38144 ft 455 kts 241°
2026-04-15 16:29 6.81218 3.51908 37668 ft 451 kts 241°
2026-04-15 16:29 6.79732 3.49167 37231 ft 447 kts 241°
2026-04-15 16:30 6.78250 3.46434 36800 ft 442 kts 241°
2026-04-15 16:30 6.76777 3.43717 36370 ft 438 kts 241°
2026-04-15 16:30 6.75324 3.41040 35955 ft 434 kts 240°
2026-04-15 16:30 6.73883 3.38381 35542 ft 431 kts 240°
2026-04-15 16:31 6.72470 3.35780 35128 ft 428 kts 240°
2026-04-15 16:31 6.71063 3.33148 34704 ft 425 kts 243°
2026-04-15 16:31 6.69879 3.30432 34251 ft 423 kts 248°
2026-04-15 16:31 6.68849 3.27666 33813 ft 421 kts 248°
2026-04-15 16:32 6.67839 3.24912 33339 ft 419 kts 249°
2026-04-15 16:32 6.66833 3.22167 32896 ft 416 kts 248°
2026-04-15 16:32 6.65833 3.19453 32467 ft 413 kts 248°
2026-04-15 16:32 6.64833 3.16755 32049 ft 410 kts 248°
2026-04-15 16:33 6.63837 3.14083 31632 ft 408 kts 247°
2026-04-15 16:33 6.62842 3.11419 31210 ft 406 kts 247°
2026-04-15 16:33 6.61849 3.08764 30801 ft 404 kts 247°
2026-04-15 16:33 6.60857 3.06113 30383 ft 403 kts 246°
2026-04-15 16:34 6.59868 3.03472 29955 ft 403 kts 246°
2026-04-15 16:34 6.58883 3.00842 29465 ft 402 kts 246°
2026-04-15 16:34 6.57897 2.98211 29003 ft 401 kts 246°
2026-04-15 16:34 6.56915 2.95592 28545 ft 400 kts 247°
2026-04-15 16:35 6.55936 2.92978 28102 ft 399 kts 247°
2026-04-15 16:35 6.54960 2.90373 27678 ft 397 kts 247°
2026-04-15 16:35 6.54000 2.87810 27258 ft 396 kts 247°
2026-04-15 16:35 6.53030 2.85220 26833 ft 395 kts 247°
2026-04-15 16:36 6.52060 2.82632 26405 ft 395 kts 248°
2026-04-15 16:36 6.51092 2.80048 25991 ft 394 kts 248°
2026-04-15 16:36 6.50128 2.77478 25579 ft 394 kts 248°
2026-04-15 16:36 6.49159 2.74893 25149 ft 394 kts 248°
2026-04-15 16:37 6.48206 2.72310 24730 ft 394 kts 249°
2026-04-15 16:37 6.47265 2.69726 24320 ft 394 kts 249°
2026-04-15 16:37 6.46328 2.67138 23902 ft 394 kts 248°
2026-04-15 16:37 6.45384 2.64534 23485 ft 395 kts 249°
2026-04-15 16:38 6.44442 2.61939 23014 ft 396 kts 249°
2026-04-15 16:38 6.43510 2.59375 22576 ft 395 kts 249°
2026-04-15 16:38 6.42566 2.56778 22142 ft 394 kts 249°
2026-04-15 16:38 6.41626 2.54194 21716 ft 394 kts 249°
2026-04-15 16:39 6.40684 2.51608 21290 ft 393 kts 249°
2026-04-15 16:39 6.39743 2.49026 20865 ft 393 kts 249°
2026-04-15 16:39 6.38802 2.46441 20429 ft 393 kts 249°
2026-04-15 16:39 6.37863 2.43865 20007 ft 393 kts 249°
2026-04-15 16:40 6.36921 2.41280 19566 ft 394 kts 249°
2026-04-15 16:40 6.36337 2.39554 19276 ft 395 kts 252°
2026-04-15 16:40 6.35733 2.36858 18832 ft 396 kts 260°
2026-04-15 16:40 6.35319 2.34116 18385 ft 397 kts 260°
2026-04-15 16:41 6.34910 2.31369 17904 ft 398 kts 260°
2026-04-15 16:41 6.34496 2.28613 17413 ft 398 kts 260°
2026-04-15 16:41 6.34077 2.25864 16944 ft 397 kts 260°
2026-04-15 16:41 6.33653 2.23119 16484 ft 396 kts 261°
2026-04-15 16:42 6.33227 2.20385 16026 ft 395 kts 261°
2026-04-15 16:42 6.32801 2.17659 15572 ft 394 kts 261°
2026-04-15 16:42 6.32373 2.14939 15110 ft 393 kts 261°
2026-04-15 16:42 6.31946 2.12224 14664 ft 392 kts 261°
2026-04-15 16:43 6.31519 2.09511 14196 ft 392 kts 261°
2026-04-15 16:43 6.31094 2.06810 13741 ft 391 kts 261°
2026-04-15 16:43 6.30675 2.04146 13246 ft 390 kts 261°
2026-04-15 16:43 6.30245 2.01420 12778 ft 388 kts 261°
2026-04-15 16:44 6.29830 1.98784 12336 ft 386 kts 261°
2026-04-15 16:44 6.29410 1.96120 11889 ft 384 kts 261°
2026-04-15 16:44 6.28993 1.93474 11440 ft 382 kts 261°
2026-04-15 16:44 6.28579 1.90849 11016 ft 379 kts 261°
2026-04-15 16:45 6.28168 1.88241 10598 ft 377 kts 261°
2026-04-15 16:45 6.27759 1.85643 10164 ft 375 kts 261°
2026-04-15 16:45 6.27352 1.83065 9930 ft 368 kts 261°
2026-04-15 16:45 6.26955 1.80553 9662 ft 362 kts 262°
2026-04-15 16:46 6.26624 1.78086 9357 ft 348 kts 269°
2026-04-15 16:46 6.26844 1.75714 9195 ft 332 kts 282°
2026-04-15 16:46 6.27246 1.73484 9110 ft 318 kts 282°
2026-04-15 16:46 6.27623 1.71331 9012 ft 307 kts 281°
2026-04-15 16:47 6.27977 1.69249 8861 ft 299 kts 281°
2026-04-15 16:47 6.28317 1.67201 8650 ft 294 kts 281°
2026-04-15 16:47 6.28644 1.65183 8350 ft 292 kts 281°
2026-04-15 16:47 6.28962 1.63199 8077 ft 290 kts 281°
2026-04-15 16:48 6.29278 1.61205 7785 ft 288 kts 281°
2026-04-15 16:48 6.29592 1.59217 7479 ft 288 kts 281°
2026-04-15 16:48 6.29896 1.57285 6988 ft 274 kts 280°
2026-04-15 16:48 6.30192 1.55400 6220 ft 273 kts 281°
2026-04-15 16:49 6.30488 1.53517 5429 ft 271 kts 280°
2026-04-15 16:49 6.30776 1.51683 5003 ft 258 kts 279°
2026-04-15 16:49 6.31056 1.49899 4745 ft 264 kts 279°
2026-04-15 16:49 6.31345 1.48054 4434 ft 270 kts 279°
2026-04-15 16:50 6.31636 1.46193 4132 ft 269 kts 279°
2026-04-15 16:50 6.31927 1.44336 3828 ft 268 kts 278°
2026-04-15 16:50 6.32215 1.42496 3542 ft 266 kts 278°
2026-04-15 16:50 6.32491 1.40676 3401 ft 255 kts 275°
2026-04-15 16:51 6.32292 1.38982 3290 ft 242 kts 245°
2026-04-15 16:51 6.31317 1.37665 3203 ft 228 kts 225°
2026-04-15 16:51 6.30208 1.36574 3071 ft 221 kts 222°
2026-04-15 16:51 6.29051 1.35577 2835 ft 217 kts 219°
2026-04-15 16:52 6.27915 1.34653 2591 ft 200 kts 219°
2026-04-15 16:52 6.26886 1.33819 2330 ft 181 kts 218°
2026-04-15 16:52 6.25950 1.33058 2130 ft 171 kts 217°
2026-04-15 16:52 6.25040 1.32320 1893 ft 159 kts 219°
2026-04-15 16:53 6.24233 1.31663 1686 ft 143 kts 217°
2026-04-15 16:53 6.23479 1.31049 1555 ft 135 kts 216°
2026-04-15 16:53 6.22765 1.30469 1348 ft 131 kts 217°
2026-04-15 16:53 6.22022 1.29866 1223 ft 140 kts 217°
2026-04-15 16:54 6.21274 1.29257 1019 ft 138 kts 217°
2026-04-15 16:54 6.20549 1.28664 822 ft 132 kts 217°
2026-04-15 16:54 6.19876 1.28081 643 ft 128 kts 218°
2026-04-15 16:54 6.19166 1.27497 575 ft 135 kts 219°
2026-04-15 16:55 6.18429 1.26909 370 ft 137 kts 219°
2026-04-15 16:55 6.17674 1.26293 123 ft 134 kts 218°
2026-04-15 16:55 6.17031 1.25782 67 ft 103 kts 217°
2026-04-15 16:55 6.16593 1.25431 65 ft 59 kts 218°
2026-04-15 16:56 6.16381 1.25264 66 ft 25 kts 218°
2026-04-15 16:56 6.16235 1.25148 61 ft 27 kts 218°
2026-04-15 16:56 6.16080 1.25027 62 ft 30 kts 218°
2026-04-15 16:56 6.15933 1.24909 65 ft 17 kts 222°
2026-04-15 16:57 6.15926 1.24801 73 ft 17 kts 305°
2026-04-15 16:57 6.16029 1.24752 72 ft 17 kts 10°
2026-04-15 16:57 6.16130 1.24822 66 ft 20 kts 38°
2026-04-15 16:57 6.16270 1.24934 65 ft 31 kts 38°
2026-04-15 16:58 6.16441 1.25070 62 ft 28 kts 38°
2026-04-15 16:58 6.16578 1.25179 67 ft 17 kts 38°
2026-04-15 16:58 6.16651 1.25236 64 ft 6 kts 38°
2026-04-15 16:58 6.16685 1.25264 69 ft 6 kts 40°
2026-04-15 16:59 6.16737 1.25288 67 ft 14 kts 28°
2026-04-15 16:59 6.16812 1.25372 68 ft 13 kts 49°
2026-04-15 16:59 6.16855 1.25414 69 ft 4 kts 40°
2026-04-15 16:59 6.16878 1.25433 70 ft 4 kts 39°
2026-04-15 17:00 6.16904 1.25440 84 ft 4 kts 335°
2026-04-15 17:00 6.16927 1.25418 84 ft 5 kts 305°
2026-04-15 17:00 6.16946 1.25393 86 ft 2 kts 308°
2026-04-15 17:00 6.16949 1.25389 85 ft 0 kts 309°